Weather observations for the past three days for
Hollywood, North Perry Airport
Imperial (Metric)
Date Time (edt) Wind (mph) Vis. (mi.) Weather Sky Cond. Temperature (ºF) Relative Humidity Wind Chill (°F) Heat Index (°F) Pressure Precipitation (in)
Air Dwpt 6 hour altimeter (in) sea level (mb) 1 hr 3 hr 6 hr
Max. Min.
23 18:53 Calm 10.00 Partly Cloudy SCT026 SCT034 SCT041 89.1 75 63% 99 30.1 1019.3
23 17:53 Calm 10.00 A Few Clouds FEW038 89.1 73.9 61% 98 30.11 1019.6
23 16:53 Calm 10.00 Partly Cloudy FEW033 SCT042 91 73 56% 100 30.11 1019.4
23 15:53 Calm 10.00 A Few Clouds FEW046 FEW060 93 75 56% 104 30.11 1019.6
23 14:53 Calm 10.00 Partly Cloudy SCT033 93.9 75 54% 106 30.11 1019.7
23 13:53 Calm 10.00 A Few Clouds FEW032 93 75 93 81 56% 104 30.12 1020.1
23 12:53 Calm 10.00 A Few Clouds FEW028 93 73 52% 102 30.14 1020.5
23 11:53 Calm 10.00 Partly Cloudy SCT028 SCT036 91.9 75.9 60% 104 30.14 1020.6
23 10:53 Calm 10.00 Mostly Cloudy SCT024 BKN029 89.1 77 68% 102 30.14 1020.6
23 09:53 Calm 10.00 Fair CLR 86 75.9 72% 96 30.14 1020.7
23 08:53 Calm 0.00 A Few Clouds FEW024 84 77 80% 94 30.14 1020.5
23 07:53 Calm 10.00 Fair CLR 81 77 81 79 88% 88 30.13 1020.2
23 06:53 Calm 10.00 Fair CLR 79 75 88% 83 30.11 1019.6
23 05:53 Calm 10.00 Fair CLR 79 73.9 85% 83 30.1 1019.2
23 04:53 Calm 10.00 Fair CLR 79 73.9 85% 83 30.09 1019.0
23 03:53 Calm 10.00 Fair CLR 79 73.9 85% 83 30.08 1018.7
23 02:53 Calm 10.00 Fair CLR 80.1 73.9 82% 85 30.09 1018.8
23 01:53 Vrbl 3 10.00 Fair CLR 80.1 75 81 79 85% 85 30.1 1019.1
23 00:53 Calm 10.00 Fair CLR 80.1 73.9 82% 85 30.09 1019.0
22 23:53 Calm 0.00 Fair CLR 80.1 75 85% 85 30.09 1018.9
22 22:53 Calm 10.00 Fair CLR 80.1 75 85% 85 30.09 1019.0
22 21:53 Calm 10.00 Fair CLR 81 75 82% 87 30.09 1019.0
22 20:53 Calm 10.00 Fair CLR 81 75 82% 87 30.09 1019.0
22 19:53 Calm 10.00 Fair CLR 81 75 82 77 82% 87 30.08 1018.6 0.09
22 18:53 Calm 10.00 Fair CLR 81 75 82% 87 30.07 1018.4 0.01
22 17:53 Calm 10.00 Light Rain FEW075 OVC100 80.1 73.9 82% 85 30.06 1017.8 0.06
22 16:53 S 5 10.00 Partly Cloudy FEW075 SCT100 81 73.9 79% 86 30.07 1018.3 0.02
22 15:53 W 8 10.00 Partly Cloudy SCT110 81 73.9 79% 86 30.07 1018.2
22 14:53 Calm 10.00 Mostly Cloudy BKN110 79 73 82% 82 30.08 1018.5 0.02
22 13:52 W 9 G 22 0.00 Thunderstorm Light Rain NULL 78.1 72 93 78.1 82% 80 30.1 1019.2 0.26 0.26
22 12:53 SE 15 10.00 Thunderstorm in Vicinity FEW035 SCT080 91 75 59% 102 30.05 1017.7
22 11:53 S 6 10.00 Fair CLR 91 73 56% 100 30.07 1018.2
22 10:53 S 8 10.00 Fair CLR 88 75.9 68% 99 30.07 1018.4
22 09:53 S 8 10.00 Thunderstorm in Vicinity Light Rain SCT025 BKN035 87.1 75.9 70% 98 30.08 1018.6
22 07:53 Calm 10.00 Fair CLR 82 75.9 82 79 82% 89 30.05 1017.4 0.05
22 06:53 Calm 10.00 Fair CLR 80.1 75 85% 85 30.03 1016.9
22 05:53 Calm 10.00 Fair CLR 80.1 75 85% 85 30.02 1016.4
22 04:53 Calm 10.00 Fair CLR 79 75 88% 83 30.01 1016.3 0.05
22 03:53 E 5 10.00 A Few Clouds FEW110 79 73.9 85% 83 30.02 1016.7 0.02
22 02:53 Calm 8.00 Rain SCT050 BKN075 OVC110 79 72 79% 82 30.04 1017.4 0.03
22 01:53 Calm 10.00 Thunderstorm in Vicinity SCT025 BKN037 BKN044 82 78.1 88 82 88% 91 30.06 1018.0 0.01
22 00:53 Calm 10.00 A Few Clouds FEW050 82.9 78.1 85% 93 30.07 1018.4 0.01
21 23:53 Calm 10.00 Partly Cloudy SCT038 84.9 73 68% 92 30.08 1018.6
21 21:53 Calm 10.00 Partly Cloudy SCT021 87.1 75.9 70% 98 30.05 1017.6
21 20:53 Calm 10.00 Fair CLR 86 75.9 72% 96 30.05 1017.6
21 19:53 Calm 10.00 Fair CLR 88 75 93 84 66% 98 30.04 1017.2 0.01
21 18:53 E 8 10.00 Fair CLR 90 73 58% 98 30.01 1016.1
21 17:53 NE 12 0.00 NULL NULL 91.9 73.9 56% 102 30.02 1016.4
21 16:53 Calm 10.00 Fair CLR 86 77 75% 97 30.02 1016.5 0.01 0.01
21 15:53 Calm 10.00 A Few Clouds FEW028 93 75.9 58% 106 30.03 1017.0
21 14:53 Calm 10.00 Fair CLR 86 75.9 72% 96 30.06 1017.7
21 13:53 Calm 10.00 Partly Cloudy FEW065 SCT100 84 77 95 82 80% 94 30.07 1018.2
21 12:53 NE 13 10.00 Thunderstorm in Vicinity FEW033 FEW110 88 75 66% 98 30.08 1018.5
21 11:53 E 12 G 22 10.00 A Few Clouds FEW034 93 73.9 54% 103 30.07 1018.3
21 10:53 E 10 0.00 Partly Cloudy FEW030 SCT036 93.9 75.9 56% 107 30.07 1018.1
21 09:53 E 12 10.00 Mostly Cloudy SCT024 BKN030 BKN034 91.9 77 62% 106 30.07 1018.3
21 08:53 Calm 0.00 Mostly Cloudy BKN022 89.1 75.9 65% 100 30.07 1018.2
21 07:53 SE 3 10.00 NULL NULL 88 77 88 84.9 70% 100 30.06 1018.0
21 06:53 Vrbl 5 10.00 Fair CLR 84.9 75 72% 93 30.06 1017.8
21 05:53 E 9 10.00 A Few Clouds FEW017 86 77 75% 97 30.04 1017.3
21 04:53 E 9 10.00 A Few Clouds FEW018 86 77 75% 97 30.05 1017.4
21 03:53 E 12 10.00 Fair CLR 87.1 75.9 70% 98 30.06 1017.9
21 02:53 E 9 10.00 Fair CLR 87.1 78.1 75% 100 30.08 1018.5
21 01:53 E 7 10.00 Fair CLR 87.1 78.1 89.1 87.1 75% 100 30.1 1019.3
21 00:53 E 10 10.00 Mostly Cloudy SCT020 BKN032 BKN045 88 78.1 73% 102 30.12 1019.8
20 23:53 Calm 0.00 Partly Cloudy FEW022 SCT027 SCT034 88 78.1 73% 102 30.12 1020.1
20 22:53 Calm 10.00 A Few Clouds FEW022 88 77 70% 100 30.13 1020.2
20 21:53 Calm 10.00 Fair CLR 88 75.9 68% 99 30.11 1019.7
20 20:53 Calm 10.00 Fair CLR 88 75 66% 98 30.11 1019.5
20 19:53 Calm 10.00 Fair CLR 89.1 75.9 96.1 89.1 65% 100 30.08 1018.7
Date Time (edt) Wind (mph) Vis. (mi.) Weather Sky Cond. Air Dwpt Max. Min. Relative Humidity Wind Chill (°F) Heat Index (°F) altimeter (in) sea level (mb) 1 hr 3 hr 6 hr
6 hour
Temperature (ºF) Pressure Precipitation (in)